Showing default

LILIUM-1, 58467

Orbit data source: Space-Track

LILIUM-1, 58467 is a Taiwanese payload satellite in SSO that was launched on Fri, 01 Dec 2023 UTC via an FALCON 9 launch vehicle from the Air Force Western Test Range (AFWTR). Payload-class satellites include a variety of spacecraft equipped with specific instruments for various scientific and technological missions. These include communications satellites like Starlink; space stations such as the ISS; scientific satellites like the Hubble; Earth observation satellites from companies like Planet Labs, Umbra, and HawkEye 360; GPS; miniature CubeSats for education and research; and military/defense satellites.

Loading next visibility...
Identifier
58467, 2023-185F
Orbit
SSO
Last TLE update
8 hours ago
Origin
Manufacturer
NCKU
Mission
Operational Amateur Technology
Bus & Motor
CUBESAT 3U, Unknown motor
Mass
4 kg wet, 4 kg dry
Launch date (UTC)
2023-12-01 (1 year ago)
Launch vehicle
FALCON 9
Launch site
Air Force Western Test Range (AFWTR)
Object type
Payload
Rocket body
Debris
Shape & HBR
Box, 0.3 m
Radar Cross Section
0.035 m², Medium (>0.1 m² and < 1m²)

Expand to show TLE details & history

TLE from 8 hours ago
0 LILIUM-1
1 58467U 23185F   25131.20638849  .00023527  00000-0  70061-3 0  9997
2 58467  97.3784 200.4649 0009835 195.0207 165.0746 15.34652905 80146
Epoch: 2025-05-11T04:57Z
Definitive object data (Epoch: 2025-05-11T04:57:11.965Z)
Latitude
0.00002°
Longitude
-103.07211°
Altitude
471.565 km
Speed
7.627 km/s
True Right ascension
13h 21m 51s
True Declination
0° 00' 00"
Sunlit
Object was in full shadow at TLE epoch
Visualization TLE readout
Latitude
-29.30594°
Longitude
-98.60618°
Altitude
477.895 km
Speed
7.623 km/s
Apparent Right ascension
11h 34m 24s
Apparent Declination
-39° 47' 24"
Sunlit
Object is in full shadow
Visualization observer readout
Local Sidereal Time
20:56:42
Azimuth
257.298° W
Elevation
-59.986°
Doppler factor
1
Orbital elements
Apogee altitude
465.621 km
Perigee altitude
452.173 km
Semi-major axis
6,837.034 km
Eccentricity
0.0009835
Inclination
97.3784°
RAAN
200.4649°
Arg. of periapsis
195.0207°
True anomaly
165.10359°
Mean anomaly
165.0746°
Eccentric anomaly
165.0891°
Mean motion
3.83921 °/min
BSTAR
0.00070061
Orbital period
93.77 mins
Loading maneuver chart data...
Loading SW <> Apogee altitude chart data...
Loading historical data...
Loading historical data...
Loading historical data...
Loading historical data...
Loading historical data...
Loading historical data...
Loading historical data...

LILIUM-1 Visibility forecast

Observer location: undefined°, undefined°

Span
Click to sort rows by Start time (UTC) header in descending order
Start Az.
Max El. time (UTC)
Max El. Az.
Max El.
End time (UTC)
End Az.
4 mins2025-05-11 18:02:58.437Z327.241° NNW2025-05-11 18:03:58.437Z299.875° NW25.209°2025-05-11 18:06:58.437Z229.751° WSW
5 mins2025-05-12 04:33:58.437Z160.741° S2025-05-12 04:35:58.437Z112° ESE44.024°2025-05-12 04:38:58.437Z351.702° N
|